When you browse on this site, cookies collect data to enhance your experience and personalize the content and advertising you see.
Visit our Privacy Policy to learn more. By continuing to use the site, you agree to this use of cookies and data.
  • în România
  • Lista ţărilor
  • Pe 7 zile
  • Temperatura apei
  • Meteo pe hartă
  • Widget-uri
  • user-avatar
    Intrare

    Meteo pe oră la Bururi

    Astăzi, 28 Mai, Joi

    Timp Temperatura Precipitaţii Vânt Presiune Umiditate
    00:00 +16°C° 0 mm 1 m/s 617 mmHg 86%
    01:00 +16°C° 0 mm 1 m/s 617 mmHg 85%
    02:00 +16°C° 0 mm 1 m/s 617 mmHg 84%
    03:00 +16°C° 0 mm 1 m/s 617 mmHg 84%
    04:00 +16°C° 0 mm 1 m/s 617 mmHg 83%
    05:00 +16°C° 0 mm 1 m/s 617 mmHg 82%
    06:00 +18°C° 0 mm 1 m/s 617 mmHg 79%
    07:00 +20°C° 0 mm 1 m/s 618 mmHg 76%
    08:00 +21°C° 0 mm 1 m/s 619 mmHg 73%
    09:00 +22°C° 0 mm 1 m/s 619 mmHg 69%
    10:00 +23°C° 0 mm 2 m/s 619 mmHg 66%
    11:00 +24°C° 0 mm 3 m/s 619 mmHg 62%
    12:00 +24°C° 0.2 mm 2 m/s 619 mmHg 65%
    13:00 +24°C° 0.2 mm 2 m/s 618 mmHg 68%
    14:00 +24°C° 0.2 mm 2 m/s 617 mmHg 70%
    15:00 +23°C° 0.4 mm 2 m/s 617 mmHg 75%
    16:00 +22°C° 0.4 mm 1 m/s 617 mmHg 79%
    17:00 +22°C° 0.4 mm 1 m/s 616 mmHg 84%
    18:00 +20°C° 0.2 mm 1 m/s 616 mmHg 86%
    19:00 +19°C° 0.2 mm 1 m/s 617 mmHg 87%
    20:00 +18°C° 0.2 mm 1 m/s 617 mmHg 89%
    21:00 +18°C° 0.1 mm 1 m/s 617 mmHg 88%
    22:00 +16°C° 0.1 mm 1 m/s 617 mmHg 87%
    23:00 +16°C° 0.1 mm 1 m/s 617 mmHg 86%

    Mâine, 29 Mai, Vineri

    Timp Temperatura Precipitaţii Vânt Presiune Umiditate
    00:00 +16°C° 0 mm 1 m/s 616 mmHg 86%
    01:00 +16°C° 0 mm 1 m/s 616 mmHg 85%
    02:00 +16°C° 0 mm 1 m/s 616 mmHg 84%
    03:00 +16°C° 0 mm 1 m/s 616 mmHg 83%
    04:00 +16°C° 0 mm 1 m/s 616 mmHg 82%
    05:00 +15°C° 0 mm 1 m/s 616 mmHg 81%
    06:00 +18°C° 0 mm 1 m/s 617 mmHg 79%
    07:00 +19°C° 0 mm 1 m/s 618 mmHg 77%
    08:00 +20°C° 0 mm 2 m/s 619 mmHg 75%
    09:00 +21°C° 0.1 mm 2 m/s 619 mmHg 71%
    10:00 +23°C° 0.1 mm 2 m/s 619 mmHg 67%
    11:00 +24°C° 0.1 mm 3 m/s 619 mmHg 63%
    12:00 +24°C° 0.1 mm 3 m/s 619 mmHg 64%
    13:00 +24°C° 0.1 mm 3 m/s 618 mmHg 65%
    14:00 +24°C° 0.1 mm 2 m/s 617 mmHg 66%
    15:00 +23°C° 0.3 mm 2 m/s 617 mmHg 71%
    16:00 +21°C° 0.3 mm 2 m/s 616 mmHg 76%
    17:00 +21°C° 0.3 mm 1 m/s 616 mmHg 82%
    18:00 +20°C° 0.2 mm 1 m/s 616 mmHg 84%
    19:00 +19°C° 0.2 mm 1 m/s 616 mmHg 86%
    20:00 +16°C° 0.2 mm 2 m/s 616 mmHg 88%
    21:00 +16°C° 0 mm 1 m/s 616 mmHg 87%
    22:00 +16°C° 0 mm 1 m/s 616 mmHg 86%
    23:00 +16°C° 0 mm 1 m/s 616 mmHg 85%

    Poimâine, 30 Mai, Sâmbătă

    Timp Temperatura Precipitaţii Vânt Presiune Umiditate
    00:00 +16°C° 0 mm 1 m/s 616 mmHg 84%
    01:00 +16°C° 0 mm 1 m/s 616 mmHg 83%
    02:00 +16°C° 0 mm 1 m/s 616 mmHg 82%
    03:00 +16°C° 0 mm 1 m/s 616 mmHg 80%
    04:00 +16°C° 0 mm 1 m/s 616 mmHg 78%
    05:00 +15°C° 0 mm 2 m/s 616 mmHg 76%
    06:00 +17°C° 0 mm 2 m/s 617 mmHg 74%
    07:00 +18°C° 0 mm 2 m/s 618 mmHg 72%
    08:00 +19°C° 0 mm 2 m/s 619 mmHg 70%
    09:00 +20°C° 0 mm 2 m/s 619 mmHg 66%
    10:00 +23°C° 0 mm 2 m/s 619 mmHg 61%
    11:00 +24°C° 0 mm 2 m/s 620 mmHg 57%
    12:00 +24°C° 0 mm 2 m/s 619 mmHg 59%
    13:00 +24°C° 0 mm 2 m/s 618 mmHg 60%
    14:00 +22°C° 0 mm 3 m/s 617 mmHg 62%
    15:00 +23°C° 0.1 mm 2 m/s 617 mmHg 66%
    16:00 +21°C° 0.1 mm 2 m/s 617 mmHg 71%
    17:00 +22°C° 0.1 mm 1 m/s 617 mmHg 75%
    18:00 +20°C° 0 mm 1 m/s 617 mmHg 77%
    19:00 +18°C° 0 mm 2 m/s 617 mmHg 79%
    20:00 +16°C° 0 mm 2 m/s 617 mmHg 81%
    21:00 +16°C° 0 mm 2 m/s 617 mmHg 80%
    22:00 +16°C° 0 mm 1 m/s 617 mmHg 79%
    23:00 +16°C° 0 mm 1 m/s 617 mmHg 78%

    31 Mai, Duminică

    Timp Temperatura Precipitaţii Vânt Presiune Umiditate
    00:00 +16°C° 0 mm 1 m/s 617 mmHg 77%
    01:00 +16°C° 0 mm 1 m/s 616 mmHg 76%
    02:00 +16°C° 0 mm 1 m/s 616 mmHg 75%
    03:00 +15°C° 0 mm 1 m/s 616 mmHg 77%
    04:00 +15°C° 0 mm 2 m/s 616 mmHg 78%
    05:00 +15°C° 0 mm 2 m/s 617 mmHg 79%
    06:00 +16°C° 0 mm 2 m/s 617 mmHg 76%
    07:00 +17°C° 0 mm 2 m/s 618 mmHg 74%
    08:00 +18°C° 0 mm 3 m/s 619 mmHg 71%
    09:00 +19°C° 0 mm 3 m/s 619 mmHg 67%
    10:00 +21°C° 0 mm 2 m/s 620 mmHg 62%
    11:00 +23°C° 0 mm 2 m/s 620 mmHg 57%
    12:00 +23°C° 0 mm 2 m/s 619 mmHg 57%
    13:00 +23°C° 0 mm 2 m/s 619 mmHg 58%
    14:00 +22°C° 0 mm 3 m/s 618 mmHg 58%
    15:00 +21°C° 0 mm 2 m/s 618 mmHg 62%
    16:00 +21°C° 0 mm 2 m/s 618 mmHg 67%
    17:00 +21°C° 0 mm 1 m/s 617 mmHg 71%
    18:00 +19°C° 0 mm 1 m/s 617 mmHg 73%
    19:00 +18°C° 0 mm 1 m/s 617 mmHg 75%
    20:00 +15°C° 0 mm 1 m/s 617 mmHg 77%
    21:00 +15°C° 0 mm 1 m/s 617 mmHg 75%
    22:00 +15°C° 0 mm 1 m/s 617 mmHg 74%
    23:00 +15°C° 0 mm 1 m/s 617 mmHg 72%

    1 Iunie, Luni

    Timp Temperatura Precipitaţii Vânt Presiune Umiditate
    00:00 +15°C° 0 mm 1 m/s 617 mmHg 71%
    01:00 +15°C° 0 mm 1 m/s 617 mmHg 70%
    02:00 +15°C° 0 mm 1 m/s 617 mmHg 69%
    03:00 +14°C° 0 mm 1 m/s 617 mmHg 70%
    04:00 +14°C° 0 mm 2 m/s 617 mmHg 71%
    05:00 +14°C° 0 mm 2 m/s 617 mmHg 72%
    06:00 +15°C° 0 mm 2 m/s 618 mmHg 70%
    07:00 +17°C° 0 mm 2 m/s 619 mmHg 69%
    08:00 +18°C° 0 mm 2 m/s 619 mmHg 68%
    09:00 +19°C° 0 mm 2 m/s 620 mmHg 65%
    10:00 +20°C° 0 mm 2 m/s 620 mmHg 63%
    11:00 +21°C° 0 mm 3 m/s 620 mmHg 60%
    12:00 +21°C° 0 mm 3 m/s 619 mmHg 61%
    13:00 +21°C° 0 mm 3 m/s 619 mmHg 61%
    14:00 +22°C° 0 mm 3 m/s 618 mmHg 61%
    15:00 +21°C° 0 mm 2 m/s 618 mmHg 65%
    16:00 +20°C° 0 mm 2 m/s 618 mmHg 69%
    17:00 +21°C° 0 mm 1 m/s 617 mmHg 73%
    18:00 +19°C° 0 mm 1 m/s 617 mmHg 74%
    19:00 +18°C° 0 mm 1 m/s 617 mmHg 76%
    20:00 +16°C° 0 mm 2 m/s 617 mmHg 77%
    21:00 +15°C° 0 mm 1 m/s 617 mmHg 76%
    22:00 +15°C° 0 mm 1 m/s 617 mmHg 75%
    23:00 +15°C° 0 mm 1 m/s 617 mmHg 74%

    2 Iunie, Marţi

    Timp Temperatura Precipitaţii Vânt Presiune Umiditate
    00:00 +15°C° 0 mm 1 m/s 617 mmHg 74%
    01:00 +15°C° 0 mm 1 m/s 616 mmHg 74%
    02:00 +15°C° 0 mm 1 m/s 616 mmHg 75%
    03:00 +15°C° 0 mm 1 m/s 616 mmHg 76%
    04:00 +15°C° 0 mm 1 m/s 616 mmHg 78%
    05:00 +15°C° 0 mm 1 m/s 617 mmHg 79%
    06:00 +16°C° 0 mm 2 m/s 617 mmHg 77%
    07:00 +17°C° 0 mm 2 m/s 618 mmHg 76%
    08:00 +18°C° 0 mm 2 m/s 619 mmHg 74%
    09:00 +19°C° 0.1 mm 2 m/s 619 mmHg 71%
    10:00 +20°C° 0.1 mm 2 m/s 619 mmHg 68%
    11:00 +21°C° 0.1 mm 2 m/s 619 mmHg 66%
    12:00 +21°C° 0.1 mm 2 m/s 619 mmHg 66%
    13:00 +21°C° 0.1 mm 2 m/s 618 mmHg 65%
    14:00 +21°C° 0.1 mm 2 m/s 618 mmHg 65%
    15:00 +21°C° 0 mm 2 m/s 617 mmHg 68%
    16:00 +20°C° 0 mm 2 m/s 617 mmHg 71%
    17:00 +21°C° 0 mm 1 m/s 617 mmHg 74%
    18:00 +18°C° 0 mm 2 m/s 617 mmHg 77%
    19:00 +17°C° 0 mm 2 m/s 617 mmHg 79%
    20:00 +16°C° 0 mm 2 m/s 617 mmHg 82%
    21:00 +15°C° 0 mm 2 m/s 617 mmHg 80%
    22:00 +15°C° 0 mm 1 m/s 617 mmHg 77%
    23:00 +15°C° 0 mm 1 m/s 617 mmHg 75%
    Arată mai mult